Theta_e
315 309 308 305 297 290 286 290 295 294 294 297 300 299 298 302 299 292 321 330 329 333 338 342 346 346 345 344 344 344 344 343 345 347 345 344 342 340 338 337 340 340 338 336 339 339 337 335 335
312 308 306 297 291 285 286 290 294 295 298 306 303 304 305 302 315 318 323 329 330 334 339 341 344 345 344 342 342 342 340 342 344 346 346 344 341 339 337 336 338 339 339 340 340 338 337 335 333
310 305 301 294 286 286 286 290 294 295 301 297 301 306 306 306 314 321 325 329 331 335 338 340 344 345 343 341 340 339 339 339 342 345 344 341 340 336 336 336 337 338 337 338 339 338 337 335 336
306 303 298 291 287 288 290 292 294 296 296 298 304 302 307 317 320 324 328 330 332 334 338 340 345 344 342 341 339 338 338 338 340 343 342 340 338 335 335 335 336 336 336 335 339 337 337 337 338
302 298 291 287 287 290 292 294 296 294 297 299 302 300 306 316 324 328 327 330 331 333 337 339 344 344 343 342 340 339 338 338 338 341 340 336 335 335 334 334 335 336 332 337 339 339 337 337 335
298 296 289 286 288 291 294 295 295 293 293 298 302 303 308 318 323 327 328 328 332 333 336 339 338 340 342 342 342 341 340 339 339 339 337 336 335 334 333 333 333 333 331 334 338 336 334 334 333
296 292 288 287 288 290 295 297 293 294 294 297 307 301 304 313 323 327 327 327 331 334 335 337 338 337 336 338 338 339 339 339 339 339 338 335 334 334 333 333 333 333 331 334 335 334 333 333 332
297 294 288 287 288 288 293 296 294 295 295 299 305 298 300 315 324 326 327 326 329 332 334 335 335 336 335 335 332 334 335 336 336 336 333 331 331 332 331 330 332 332 332 335 334 333 332 331 331
295 291 287 288 289 290 293 293 293 295 296 297 299 303 305 321 324 324 324 326 327 332 333 335 337 335 334 333 329 329 331 331 331 329 327 324 322 322 323 325 331 333 332 331 330 330 329 328 326
293 290 291 292 290 292 294 293 295 295 296 296 297 302 308 320 323 322 323 324 326 329 332 334 335 337 333 335 329 330 329 327 326 324 322 320 318 317 321 322 327 329 328 328 329 328 323 317 312
291 291 292 293 293 296 295 292 293 294 292 296 297 300 313 316 319 322 323 325 328 330 331 333 333 335 336 333 330 328 327 325 323 321 320 318 316 316 318 319 319 320 319 319 320 315 312 311 310
291 292 293 296 296 295 295 294 292 293 296 294 297 304 314 317 319 321 322 322 328 329 331 333 333 333 335 335 333 332 329 323 321 319 318 316 314 314 315 316 316 316 314 311 310 309 309 309 309
290 291 294 295 294 294 294 292 292 293 294 294 296 309 314 319 320 320 322 321 323 328 330 332 332 332 334 334 334 333 331 326 322 319 318 317 314 313 313 314 314 314 311 309 308 307 307 307 306
291 292 292 293 292 293 291 290 292 291 293 293 297 303 310 315 318 316 318 319 320 325 327 330 330 332 333 332 332 332 332 330 323 320 319 317 316 313 313 312 312 312 311 308 307 305 305 304 304
292 289 289 290 291 290 291 287 290 292 291 293 293 294 304 310 311 317 321 320 321 323 324 326 329 330 332 331 332 331 331 331 328 322 320 318 316 314 313 312 312 312 311 308 308 305 305 304 304
288 286 283 286 291 291 288 284 287 291 292 292 291 291 293 299 310 313 315 318 319 319 322 325 329 328 329 331 331 331 331 331 330 327 322 320 318 316 316 316 315 314 312 310 307 304 303 303 303
285 280 281 284 291 291 287 284 289 291 292 291 291 291 292 293 295 303 311 314 316 318 319 322 326 327 328 328 330 331 331 330 330 330 325 321 319 318 318 316 316 313 312 309 307 302 302 300 299
282 281 282 282 287 288 286 288 291 293 291 292 291 291 291 292 294 295 298 308 312 314 317 322 324 327 328 328 328 330 330 330 330 329 328 325 322 320 319 317 315 313 312 309 306 303 299 298 298
285 283 282 284 289 288 287 287 290 292 290 291 291 290 291 292 294 295 295 296 304 309 312 316 320 324 326 326 327 327 327 328 329 330 329 328 326 323 320 319 316 314 312 310 308 302 295 294 292
286 284 283 285 289 288 286 287 290 290 291 290 291 290 290 290 291 293 292 292 294 300 308 312 317 321 324 327 327 327 328 329 329 329 329 329 327 326 323 320 317 314 313 310 306 301 295 294 294
284 284 283 282 284 284 283 283 284 287 288 289 289 288 289 289 289 292 293 292 292 292 296 306 311 316 320 325 321 313 315 317 324 327 328 329 329 328 326 323 321 316 314 311 307 304 303 297 292
283 288 286 285 283 279 283 277 283 285 286 288 289 288 290 291 292 292 294 294 295 295 293 296 304 310 314 319 319 321 323 322 325 327 328 327 328 329 327 325 324 319 316 314 309 307 305 304 295
286 288 286 284 282 280 281 279 282 282 283 286 289 291 292 292 293 294 295 295 294 295 295 296 299 305 311 315 320 320 320 321 318 315 319 325 325 327 327 326 325 322 318 316 312 308 306 306 302
289 286 285 283 280 276 279 278 279 281 283 285 289 291 292 293 293 294 295 295 295 295 296 297 300 303 308 312 314 315 318 316 310 309 312 314 320 323 324 322 324 323 319 317 314 310 307 306 306
285 283 277 275 274 274 278 278 280 283 286 287 288 290 290 292 293 294 294 295 296 295 295 296 297 298 301 306 309 311 312 312 311 309 309 306 310 311 318 317 317 320 319 318 316 311 309 306 305
283 283 277 272 272 275 280 278 282 285 286 290 290 289 291 292 293 293 294 294 294 295 295 295 296 296 297 298 300 304 306 308 308 307 306 309 309 311 312 316 317 317 317 316 316 313 309 307 305
284 281 284 278 268 274 277 279 284 287 289 289 290 292 292 293 293 293 294 294 294 294 294 294 294 295 296 296 297 297 298 300 303 304 304 305 304 304 304 305 312 314 315 313 314 313 309 308 306
286 287 281 278 270 269 274 277 279 285 287 288 290 290 291 292 293 293 294 294 294 294 294 295 294 294 294 295 296 296 297 297 298 299 300 300 300 300 299 299 300 302 307 311 311 311 311 308 307
285 283 282 283 280 274 271 277 284 288 288 288 289 291 290 291 292 293 293 294 294 294 295 294 295 294 294 295 295 295 295 296 296 297 298 298 298 298 298 297 297 299 299 300 304 306 307 306 306
285 284 284 279 276 277 278 279 289 290 290 290 289 290 290 292 292 293 293 293 293 293 293 293 293 293 293 293 294 294 294 295 295 295 296 296 296 296 296 296 295 296 298 298 299 301 303 303 302
Wind_Speed
4 4 3 6 6 6 0 3 0 3 1 1 3 4 5 2 4 4 1 5 10 11 7 8 11 11 12 11 11 11 11 12 14 13 15 16 16 14 14 14 12 15 15 14 15 18 17 17 18
3 1 6 3 6 3 5 3 4 4 3 7 4 3 4 0 2 5 8 6 12 9 6 5 11 12 13 13 11 11 12 10 12 12 15 16 15 14 14 13 12 14 16 15 16 17 17 15 16
1 4 4 6 4 4 5 4 5 2 5 2 3 2 4 2 1 7 2 11 11 7 6 6 11 13 13 13 12 13 11 10 11 12 15 15 14 13 13 13 12 13 14 14 15 15 16 16 15
1 5 5 5 3 3 3 4 5 5 2 2 2 4 1 2 6 5 9 12 11 9 7 8 12 13 14 13 13 13 12 11 12 12 14 14 14 12 12 12 11 14 13 10 14 14 15 14 15
4 3 5 3 2 2 2 1 7 3 0 2 2 3 2 2 2 8 11 11 11 8 7 8 12 13 13 13 13 13 12 12 12 12 12 13 12 13 13 12 11 13 12 11 15 16 14 15 17
4 3 5 1 3 4 2 3 5 3 0 2 3 3 3 3 5 7 8 9 8 9 7 7 10 11 12 12 13 12 10 11 10 11 11 12 12 12 12 12 11 11 11 12 16 16 15 15 15
6 5 5 4 1 2 4 6 4 5 3 3 8 4 3 2 5 7 7 6 7 7 7 6 6 9 10 10 9 12 10 10 10 9 10 11 10 11 11 10 11 11 10 11 14 14 14 14 14
6 6 3 2 4 4 5 6 2 5 5 3 2 3 3 4 8 7 6 6 6 6 6 7 6 6 5 6 8 10 10 9 10 9 11 10 9 10 9 8 8 12 10 13 14 14 13 13 14
3 6 2 5 6 3 4 4 3 1 5 1 5 5 1 6 9 7 5 4 4 4 6 6 8 5 5 5 5 9 9 8 8 8 9 8 4 6 7 5 7 11 11 12 12 12 12 13 12
6 4 8 4 4 4 6 2 6 4 2 2 3 1 2 7 11 11 9 9 7 9 11 10 10 8 5 4 5 5 5 4 4 5 6 4 5 5 4 6 6 9 10 11 11 12 10 7 4
2 5 4 2 2 5 6 2 2 6 2 8 8 6 6 6 8 11 9 10 14 11 10 10 9 9 9 5 4 2 2 3 3 6 5 5 4 3 3 3 3 3 6 3 5 5 3 5 4
5 2 5 4 0 3 6 6 3 6 6 0 8 5 7 10 13 13 12 10 14 13 10 10 11 9 9 6 5 5 4 3 3 4 6 4 3 4 4 3 4 3 3 4 4 3 4 5 5
3 3 3 3 4 4 3 2 3 7 7 2 4 7 11 12 11 8 7 6 7 13 11 10 11 12 9 8 7 6 6 5 4 5 5 5 4 4 4 4 3 3 3 3 3 3 4 4 4
3 4 3 3 1 2 1 0 2 3 5 3 4 7 8 10 11 6 7 9 10 11 12 12 13 13 13 9 9 7 7 7 4 4 5 6 4 4 4 4 4 4 4 3 3 4 4 3 3
5 5 2 0 0 1 0 4 7 4 4 2 6 5 6 9 4 12 13 11 11 9 8 11 11 10 14 13 12 9 7 7 7 6 7 8 6 6 6 4 4 4 4 5 4 3 3 3 2
6 6 3 0 4 1 3 9 2 4 3 4 6 7 8 10 13 9 8 8 8 7 11 10 10 11 11 12 11 10 9 7 7 7 6 9 9 8 7 6 6 4 4 3 2 2 2 2 2
7 3 4 2 3 2 2 6 3 1 5 6 7 7 7 9 9 11 11 10 9 10 9 11 12 13 13 10 9 11 12 10 8 7 8 10 10 10 9 8 7 7 5 4 4 2 3 2 2
6 3 3 2 2 2 1 9 7 7 5 9 9 8 8 9 14 7 8 9 8 8 8 9 10 12 11 8 7 7 8 9 7 8 8 12 11 12 10 7 8 8 7 5 5 4 2 2 3
7 4 3 1 1 3 5 6 11 9 6 10 10 8 9 10 7 7 8 7 8 8 9 11 11 12 10 8 10 10 11 9 8 8 10 12 12 13 12 8 9 9 10 11 10 5 5 1 3
5 5 3 1 3 2 4 9 10 9 8 5 8 8 8 7 7 8 7 4 6 7 10 8 12 11 12 10 9 7 10 9 10 8 9 12 13 14 13 12 10 12 9 11 12 11 4 3 8
2 5 4 3 2 4 5 7 7 4 3 7 7 4 5 7 7 8 8 7 3 4 7 7 8 8 8 11 3 3 3 2 4 8 9 10 13 13 14 14 12 12 11 10 11 12 14 9 6
4 6 5 5 4 2 3 5 7 5 8 6 8 8 7 8 7 6 7 7 8 7 3 5 6 7 7 8 6 11 10 10 10 10 8 7 11 12 13 14 14 13 11 12 13 12 14 9 10
4 4 6 4 6 4 4 3 9 5 4 7 9 8 9 8 6 8 8 7 6 7 7 6 3 4 5 7 8 8 9 6 3 4 7 10 9 11 11 13 14 13 11 13 14 13 14 12 9
10 7 8 5 4 2 3 5 7 1 3 3 4 8 8 8 8 8 6 6 7 7 8 7 7 5 3 3 5 7 10 7 4 4 5 5 7 7 9 8 11 12 12 13 13 14 16 15 15
4 6 3 4 3 5 1 2 8 3 1 2 4 6 7 6 8 9 10 10 10 10 9 7 9 8 7 5 3 4 5 5 6 5 4 5 4 4 9 8 8 8 11 11 11 12 14 15 14
6 7 7 8 5 3 3 6 5 2 3 5 5 3 6 9 7 8 8 8 9 10 9 9 9 8 7 5 5 5 5 3 4 4 4 5 5 6 7 9 9 8 7 9 9 8 11 12 13
5 4 5 9 3 4 4 5 2 2 5 6 6 8 8 7 7 8 9 9 9 11 10 9 9 7 8 8 6 5 4 4 5 6 5 4 4 4 6 7 9 10 10 8 9 8 9 11 12
5 9 5 3 4 3 3 6 7 4 4 2 6 6 6 7 9 9 8 8 7 7 7 11 11 10 8 8 6 5 7 6 5 5 6 6 5 4 6 6 7 7 10 11 10 10 9 9 9
4 3 5 5 5 7 4 7 7 11 7 7 5 6 7 8 8 7 6 7 7 8 10 9 12 11 12 10 8 7 7 7 6 5 5 6 5 6 7 7 7 8 8 8 11 13 12 13 12
1 6 7 7 5 1 4 5 7 10 7 5 3 4 5 6 6 6 7 7 8 8 8 9 9 10 10 10 9 7 6 6 5 6 6 6 7 6 7 7 7 8 9 10 11 13 13 14 15
Wind_Direction
7 25 75 41 55 67 267 250 217 135 240 71 91 126 181 97 159 200 90 165 133 144 156 155 157 131 124 118 110 108 102 107 101 100 108 103 96 93 96 99 101 97 93 96 98 97 90 93 91
9 256 44 83 85 74 264 249 210 187 160 128 85 63 34 73 74 107 120 179 145 145 140 131 132 128 129 122 113 106 102 102 98 108 108 100 97 94 96 102 106 101 92 89 102 95 94 93 98
243 36 85 90 103 171 210 198 194 105 150 37 95 52 137 181 353 166 173 142 136 135 130 134 132 133 133 126 121 113 110 109 107 101 104 98 93 96 102 107 108 104 92 90 103 102 100 102 101
98 11 40 87 210 241 206 166 157 115 217 245 123 64 2 194 162 192 140 138 136 140 138 148 142 141 137 131 127 124 127 129 119 108 110 103 101 108 113 110 110 95 89 98 103 98 106 109 97
36 60 66 84 276 291 258 160 137 122 315 79 5 174 340 47 77 128 140 145 146 145 141 151 151 146 143 141 137 136 139 135 129 122 120 117 121 122 118 114 113 106 102 94 112 102 101 92 90
44 95 65 190 273 320 82 151 130 110 339 111 74 131 188 312 129 152 146 147 146 146 145 150 153 148 149 151 146 142 140 137 133 131 132 124 126 124 121 118 122 119 116 115 103 102 99 93 95
117 82 167 164 202 347 161 156 145 154 152 225 146 132 282 252 173 148 140 131 135 141 146 149 155 156 156 160 144 143 142 141 134 132 126 119 127 125 119 120 127 119 121 121 110 107 103 100 97
107 90 103 157 183 234 176 162 144 159 208 67 124 207 219 218 143 115 113 128 137 144 149 153 150 152 157 162 149 142 142 141 133 124 113 117 118 110 114 115 137 129 124 118 115 112 109 109 104
140 68 153 187 165 207 149 161 138 240 121 236 196 164 233 133 121 114 112 114 133 156 162 159 165 157 157 152 161 138 148 136 123 113 111 103 113 114 114 137 141 129 134 129 131 120 114 105 100
88 105 202 187 203 194 174 168 166 155 121 227 274 215 98 132 149 161 169 177 176 184 188 184 185 174 159 153 148 145 141 136 134 129 131 122 129 129 131 131 123 125 144 144 137 129 123 103 95
145 161 185 194 227 166 153 131 164 134 213 221 202 180 156 146 167 173 184 185 192 192 192 186 188 187 181 158 149 130 130 131 138 139 137 140 127 122 123 118 102 107 83 85 105 113 93 103 101
101 124 163 147 163 140 150 120 201 198 208 3 244 161 159 167 182 186 189 182 192 197 196 191 189 186 188 176 177 161 159 147 154 162 154 144 143 147 146 140 140 128 129 130 129 124 127 118 117
109 158 107 82 71 82 108 109 257 254 264 357 86 156 181 185 193 199 189 178 177 200 200 197 192 189 187 188 184 177 179 177 166 162 164 153 155 163 150 157 157 150 139 146 153 150 148 142 136
149 94 96 78 54 55 138 255 44 270 352 201 145 200 200 200 201 160 187 196 190 196 197 196 196 193 191 191 189 187 184 182 169 173 178 166 161 158 162 163 174 168 160 144 149 168 165 149 151
98 95 51 33 224 68 191 292 229 265 346 270 243 242 238 235 211 218 206 204 196 199 185 189 190 188 195 198 200 197 188 186 185 186 177 177 170 171 168 169 187 185 173 167 169 165 149 160 175
74 49 122 223 140 359 103 267 289 16 156 264 260 264 244 239 226 234 227 220 192 182 190 186 189 191 193 200 201 202 202 192 191 188 184 187 184 175 178 183 191 169 171 154 140 126 141 187 174
28 174 220 339 191 109 144 273 289 209 4 311 294 264 264 276 255 236 225 218 211 198 183 191 191 193 195 194 196 206 209 210 198 188 190 189 192 186 189 191 188 164 170 166 169 151 147 170 150
169 172 235 208 192 100 107 269 290 283 292 282 285 274 276 264 260 274 251 233 221 211 197 199 194 200 192 191 191 204 211 217 209 200 195 191 196 196 197 196 182 170 175 173 175 162 126 153 158
128 125 158 198 348 151 225 263 277 286 269 276 266 280 272 267 285 265 257 227 214 210 200 200 186 197 181 189 197 209 213 210 213 210 201 195 199 198 201 200 187 186 184 192 185 156 160 140 137
124 132 186 91 55 121 8 287 269 276 267 267 300 298 292 294 316 309 305 264 218 226 221 205 208 193 196 197 207 208 214 217 222 213 211 202 199 200 202 202 200 193 192 190 181 177 155 151 179
119 151 180 144 68 67 336 311 329 298 351 339 337 320 352 311 333 350 5 10 359 275 242 223 221 209 206 210 150 87 63 52 201 217 215 211 206 205 204 208 200 195 195 197 192 195 191 192 189
170 189 133 127 86 210 17 284 304 331 333 29 13 19 14 6 18 22 26 31 24 1 322 232 227 211 203 180 181 201 215 222 226 230 222 216 208 209 207 207 214 199 199 198 199 197 200 184 195
180 122 116 96 94 77 339 81 271 8 37 1 359 10 18 9 18 27 26 26 26 19 15 2 326 251 212 189 198 201 223 230 213 189 215 219 215 216 215 211 213 211 204 209 202 197 202 209 195
155 78 50 58 91 33 260 146 283 111 72 12 3 17 18 12 20 34 32 39 36 29 32 30 31 21 336 224 212 203 216 212 192 197 205 212 221 224 226 223 214 212 208 208 204 202 204 206 219
86 88 16 9 20 212 356 86 236 273 91 121 55 23 21 22 33 32 29 21 20 20 19 25 29 26 10 357 297 260 258 250 231 218 206 190 208 219 231 224 224 219 216 216 209 205 211 211 213
174 161 155 190 185 208 75 224 257 348 19 76 60 40 56 42 29 35 27 23 18 11 15 11 18 20 22 22 344 321 297 270 256 226 215 227 224 226 230 236 240 236 231 217 217 214 210 210 217
188 183 162 105 27 61 217 275 17 2 53 42 57 48 37 39 38 38 27 22 17 15 7 8 8 9 17 3 6 355 323 297 278 272 249 245 244 245 235 227 235 241 242 232 222 218 215 214 217
158 160 83 0 130 218 274 283 193 185 138 96 52 44 28 26 32 31 27 24 22 20 15 24 24 18 354 3 9 351 330 318 313 293 276 262 264 248 245 243 235 236 243 248 243 246 237 221 222
132 167 58 114 145 159 155 250 186 161 164 115 72 30 32 30 33 28 25 22 20 20 22 19 22 13 11 5 358 360 354 343 326 296 287 268 264 241 240 235 232 234 233 229 237 243 243 241 241
177 180 151 141 216 269 141 264 151 152 146 145 145 45 46 57 37 30 22 17 20 19 16 11 14 14 4 348 353 351 337 342 345 328 312 300 279 271 252 248 241 238 234 228 225 237 238 241 244